Temperature
13 12 12 11 11 11 10 10 10 10 10 9 9 9 9 9 9 9 8 8 8 7 7 7 6 6 5 5 4 3 3 2 1 2 2 2 1 1 0 -0 -1 -1 -1
12 12 11 11 10 10 10 10 10 9 9 9 9 9 9 9 9 8 8 8 8 7 7 6 6 5 5 4 4 3 3 2 1 1 1 1 1 -0 -1 -1 -1 -1 -2
12 11 11 10 10 10 10 10 9 9 9 9 9 9 9 9 8 8 8 7 7 7 6 6 5 5 4 4 3 3 2 2 1 0 0 0 -0 -1 -1 -1 -2 -2 -2
11 11 10 10 10 10 10 9 9 9 9 9 9 9 9 8 8 8 7 7 6 6 6 5 5 4 4 3 3 2 2 1 1 0 -0 -0 -1 -1 -2 -2 -3 -3 -3
11 11 10 10 10 9 9 9 9 9 9 9 8 8 8 8 7 7 7 6 6 6 5 5 4 4 3 3 2 2 1 1 -0 -1 -1 -1 -2 -2 -3 -3 -3 -4 -4
11 11 10 10 9 9 9 9 9 9 8 8 8 8 8 7 7 6 6 6 5 5 5 4 4 3 3 2 2 1 0 -0 -1 -1 -2 -2 -2 -3 -3 -4 -4 -5 -5
11 10 10 9 9 9 8 8 8 8 8 8 8 7 7 7 6 6 5 5 5 4 4 3 3 3 2 2 1 1 0 -0 -1 -2 -3 -3 -3 -3 -4 -4 -5 -5 -5
11 10 10 9 9 8 8 8 8 8 7 7 7 7 6 6 6 5 5 4 4 4 3 3 2 2 1 1 0 -0 -0 -1 -2 -2 -3 -3 -4 -4 -4 -5 -5 -5 -6
11 10 9 9 8 8 8 8 7 7 7 7 6 6 6 5 5 4 4 4 3 3 2 2 1 1 1 -0 -1 -1 -1 -2 -2 -3 -3 -4 -4 -5 -5 -5 -6 -6 -6
11 10 9 8 8 8 7 7 7 7 6 6 6 5 5 5 4 4 3 3 2 2 2 1 1 0 -1 -1 -2 -2 -2 -2 -3 -4 -4 -4 -5 -5 -6 -6 -6 -7 -7
10 9 8 8 7 7 7 6 6 6 5 5 5 5 4 4 3 3 2 2 2 1 1 0 -0 -1 -2 -2 -3 -3 -3 -4 -4 -5 -5 -5 -5 -6 -6 -6 -7 -7 -7
9 9 8 7 7 6 6 6 5 5 5 4 4 4 3 3 3 2 2 1 0 -0 -0 -1 -1 -2 -2 -3 -3 -4 -4 -5 -5 -6 -6 -6 -6 -6 -7 -7 -7 -7 -8
9 8 7 7 6 6 5 5 5 4 4 4 3 3 3 2 2 1 1 0 -0 -1 -1 -2 -3 -3 -3 -4 -5 -5 -5 -6 -6 -6 -7 -7 -7 -7 -7 -8 -8 -8 -8
8 7 7 6 6 5 5 4 4 4 3 3 3 2 2 2 1 1 -0 -0 -1 -2 -2 -3 -3 -4 -4 -5 -6 -6 -6 -7 -7 -7 -7 -7 -8 -8 -8 -8 -8 -8 -8
7 7 6 5 5 4 4 4 3 3 3 2 2 2 1 1 0 -1 -1 -2 -2 -3 -3 -4 -4 -5 -5 -6 -6 -7 -7 -7 -7 -8 -8 -8 -8 -8 -8 -9 -9 -9 -9
7 6 5 5 4 4 3 3 2 2 2 1 1 0 0 -1 -1 -2 -2 -3 -3 -4 -5 -5 -5 -6 -6 -7 -7 -8 -8 -8 -8 -8 -8 -9 -9 -9 -9 -9 -9 -9 -10
6 5 5 4 4 3 3 3 2 1 1 0 0 -0 -1 -1 -2 -3 -3 -4 -4 -5 -6 -6 -6 -7 -8 -8 -8 -8 -9 -9 -9 -9 -9 -9 -9 -9 -9 -10 -10 -10 -10
5 5 4 4 3 3 2 2 1 1 1 0 -0 -1 -2 -2 -3 -3 -4 -5 -5 -6 -6 -7 -7 -8 -8 -9 -9 -9 -9 -10 -10 -10 -10 -10 -10 -10 -10 -10 -10 -10 -10
4 4 3 3 2 2 1 1 1 0 -0 -1 -1 -2 -3 -3 -4 -4 -5 -6 -6 -7 -7 -8 -8 -9 -9 -10 -10 -10 -10 -10 -10 -10 -10 -10 -10 -10 -10 -10 -11 -11 -11
3 3 3 2 2 1 1 0 -0 -1 -1 -2 -3 -3 -4 -4 -5 -5 -6 -7 -7 -8 -8 -9 -9 -10 -10 -10 -10 -11 -11 -11 -11 -11 -11 -11 -11 -11 -11 -11 -11 -11 -11
3 2 2 1 1 0 -0 -1 -1 -2 -3 -3 -4 -5 -5 -6 -6 -7 -7 -8 -8 -9 -9 -9 -10 -10 -10 -11 -11 -11 -11 -11 -11 -11 -11 -11 -11 -11 -11 -11 -11 -11 -11
2 1 1 0 -0 -1 -1 -2 -3 -3 -4 -4 -5 -5 -6 -7 -7 -7 -8 -8 -9 -9 -10 -10 -10 -10 -11 -11 -11 -12 -12 -12 -12 -12 -12 -12 -12 -12 -12 -12 -12 -12 -12
1 0 -0 -1 -1 -2 -2 -3 -4 -4 -5 -5 -6 -6 -7 -7 -8 -8 -8 -9 -9 -10 -10 -10 -11 -11 -11 -11 -12 -12 -12 -12 -12 -12 -12 -12 -12 -12 -12 -12 -12 -12 -12
-0 -1 -1 -1 -2 -3 -3 -4 -4 -5 -6 -6 -7 -7 -8 -8 -8 -8 -9 -9 -10 -10 -10 -11 -11 -11 -11 -12 -12 -12 -12 -12 -12 -12 -12 -12 -12 -12 -12 -13 -12 -12 -12
-1 -1 -2 -2 -3 -4 -4 -5 -5 -6 -6 -7 -7 -8 -8 -8 -8 -9 -9 -9 -10 -10 -10 -11 -11 -11 -11 -12 -12 -12 -12 -12 -12 -13 -13 -13 -13 -13 -13 -13 -13 -13 -12
-2 -2 -3 -3 -4 -4 -5 -6 -6 -6 -7 -7 -8 -8 -8 -9 -9 -9 -9 -10 -10 -10 -10 -11 -11 -11 -11 -12 -12 -12 -12 -12 -12 -12 -13 -13 -13 -13 -13 -13 -13 -13 -12
Wind_Speed
11 11 11 11 11 12 12 13 12 11 12 13 13 12 12 11 10 9 8 8 8 6 5 6 6 5 4 4 4 4 5 5 7 6 5 4 4 6 9 11 13 13 14
10 10 10 11 11 12 12 12 12 13 12 12 12 12 11 11 10 10 9 9 8 8 7 7 7 5 5 5 4 5 5 6 6 9 6 4 6 6 6 7 10 12 13
9 10 10 11 12 13 12 12 12 12 12 11 12 12 11 11 10 9 9 8 8 8 8 8 7 6 6 5 5 6 5 6 6 6 7 5 5 5 6 6 7 8 12
10 10 11 12 12 12 11 12 12 12 13 12 11 11 10 10 9 9 8 8 7 7 7 7 7 7 8 7 6 7 6 6 6 6 7 6 5 5 4 6 7 5 7
10 11 11 10 10 10 11 11 11 11 12 11 10 9 9 8 9 9 8 8 7 6 6 6 7 9 10 8 6 6 6 6 5 6 7 6 5 5 5 5 7 7 7
11 10 9 10 10 10 11 11 11 10 10 10 10 10 9 8 12 14 10 7 7 7 7 6 7 8 10 13 14 13 10 7 6 6 6 7 8 7 6 6 7 8 7
10 10 10 11 11 10 11 11 11 10 9 9 9 9 9 8 12 13 12 7 7 7 7 6 6 6 9 6 11 14 13 16 15 9 8 8 7 7 7 8 8 8 9
10 10 10 11 10 10 11 11 10 8 9 8 8 8 7 7 10 10 10 6 5 6 7 7 7 7 7 7 7 7 8 9 11 8 8 9 8 8 8 8 9 8 7
10 10 11 11 11 11 11 10 7 7 7 6 7 8 7 6 8 8 7 4 4 6 6 6 7 7 12 13 8 7 8 8 12 16 17 16 18 19 15 7 5 7 8
11 10 10 11 11 11 10 8 6 7 7 7 6 6 6 5 7 8 7 4 5 5 5 6 10 10 13 14 8 7 9 9 8 8 10 12 11 13 16 8 5 7 7
9 9 9 9 10 10 8 6 7 7 7 6 5 4 4 4 6 7 7 4 5 5 5 5 6 12 14 15 12 7 12 12 7 6 6 6 6 6 6 6 6 6 7
10 9 9 8 8 8 9 7 7 8 7 5 4 2 2 2 4 5 7 7 6 4 5 5 6 12 13 14 11 13 17 15 5 5 5 6 6 6 6 6 7 7 8
10 9 9 8 7 8 9 8 6 6 5 4 4 3 2 2 3 6 7 8 9 5 5 8 10 12 11 9 12 15 13 7 5 6 7 7 6 6 5 4 5 5 6
11 9 9 9 8 7 6 6 6 6 5 4 4 3 3 2 2 3 3 4 6 6 5 7 10 10 8 9 10 8 6 6 6 6 6 6 5 4 4 3 3 3 4
11 9 8 8 8 7 5 4 5 4 5 5 4 4 3 3 5 5 3 3 3 4 4 2 2 3 4 4 5 5 5 5 6 5 6 6 5 4 4 3 3 2 3
10 8 7 6 6 6 6 4 5 4 4 4 3 3 2 3 4 5 7 8 8 8 4 2 3 4 5 5 5 5 5 6 6 6 5 5 5 5 4 3 2 3 4
10 9 7 7 6 6 5 5 3 4 5 5 3 2 2 3 5 6 7 7 7 7 3 3 4 4 5 5 5 5 5 5 5 5 5 5 5 4 4 3 3 3 4
10 9 8 6 6 5 5 4 4 3 1 1 3 3 4 5 6 6 7 6 4 4 3 4 4 5 5 5 5 6 6 5 5 5 5 5 4 4 3 3 3 4 4
9 7 7 6 6 5 5 4 3 3 2 0 1 2 4 5 5 6 6 2 3 4 4 4 5 5 5 5 5 5 5 5 5 4 4 5 4 3 4 4 4 7 5
8 11 9 7 6 5 4 3 2 2 1 1 1 2 2 2 2 3 3 3 4 4 5 5 5 5 5 5 5 5 5 5 5 5 5 4 4 3 4 4 4 4 4
7 8 10 7 5 4 3 3 2 2 1 1 2 3 5 2 3 4 4 4 4 5 5 5 5 5 5 5 5 5 6 5 5 5 4 4 4 4 4 4 4 4 4
7 6 5 5 4 3 3 2 2 1 1 2 2 3 6 3 3 4 4 4 4 5 5 5 5 5 5 5 5 6 6 6 5 5 5 4 4 4 4 3 3 3 3
7 6 5 4 3 3 3 2 1 1 1 2 2 3 3 3 4 4 5 5 5 5 5 5 6 6 5 6 6 6 6 6 5 5 5 5 5 4 4 4 4 4 4
6 6 5 4 3 2 2 1 1 1 1 2 3 3 3 4 4 5 5 5 5 5 5 5 6 7 9 7 7 8 8 9 8 6 7 6 6 5 4 4 4 5 4
6 5 4 3 3 2 1 1 1 1 2 3 3 4 4 5 5 6 5 6 6 7 7 7 6 7 9 10 9 10 13 14 14 10 7 6 6 6 5 5 5 4 4
5 5 4 3 2 1 1 1 2 2 3 4 4 4 5 6 6 6 6 6 6 6 7 7 8 10 11 11 12 14 15 15 14 13 7 5 6 6 6 5 6 5 5
Wind_Direction
181 180 180 181 180 178 181 183 180 176 174 177 176 173 174 175 172 172 178 177 182 190 191 197 211 205 206 209 203 204 208 201 242 266 251 259 262 266 283 287 289 287 288
180 177 178 176 176 179 182 180 175 176 177 176 173 174 177 178 177 178 182 185 188 195 201 203 217 212 217 219 214 221 225 217 229 265 272 261 254 257 261 271 284 286 283
176 177 176 176 178 181 180 176 174 175 174 173 173 176 179 179 180 183 184 189 195 200 201 206 217 213 229 231 228 232 237 241 230 252 272 261 259 257 266 272 274 278 284
177 178 181 181 181 179 175 174 174 173 173 175 177 178 177 176 179 180 182 189 197 205 208 211 215 215 227 232 236 238 240 247 248 254 268 269 262 258 258 273 284 270 276
177 182 185 179 174 171 171 172 170 171 173 172 170 172 171 175 182 181 184 190 197 209 219 222 225 229 235 239 242 239 235 244 251 258 268 274 272 272 266 265 282 284 274
180 184 175 169 168 169 168 166 165 167 165 165 172 173 177 187 192 193 189 191 199 209 225 234 239 243 253 261 267 269 262 256 253 254 265 268 273 265 265 269 278 290 291
177 173 169 167 167 167 163 162 165 167 163 168 173 175 184 192 194 199 199 192 203 214 223 233 245 249 260 258 271 278 278 277 275 272 266 265 271 265 268 274 269 271 278
172 170 167 164 163 160 161 165 166 163 167 171 175 178 182 195 197 200 203 200 212 223 227 230 238 251 255 261 255 261 262 267 274 273 259 262 260 261 255 265 273 276 269
173 171 168 164 161 162 166 166 160 159 164 169 172 172 178 194 199 204 205 197 220 237 241 238 239 247 266 276 274 268 273 272 280 281 280 283 287 292 294 291 286 290 293
174 168 162 160 162 165 165 158 152 156 161 159 162 170 178 191 207 216 216 198 225 244 250 249 254 260 271 278 271 266 275 276 272 279 282 287 288 288 293 285 271 279 286
151 146 148 153 156 154 149 146 144 143 142 150 158 168 181 198 216 226 228 210 223 239 248 253 255 272 279 283 284 271 277 287 275 270 273 274 274 270 267 262 250 250 265
135 136 139 140 142 140 137 136 138 141 144 151 157 174 201 213 222 237 244 251 256 238 246 249 257 278 285 289 291 290 295 300 294 286 282 281 277 271 266 261 255 249 247
128 131 131 129 129 134 139 139 137 140 147 157 165 194 228 230 241 253 261 267 271 264 256 272 281 288 294 294 295 299 304 300 290 283 280 277 268 264 261 266 269 268 269
129 129 129 128 124 123 128 138 143 151 154 162 180 204 226 246 255 258 255 268 276 279 281 287 295 300 301 299 300 301 293 279 281 275 275 273 271 264 259 255 265 275 287
126 126 124 124 127 123 119 131 146 165 169 173 188 190 197 238 258 267 269 258 258 262 288 282 284 288 284 283 286 283 279 283 287 273 273 277 277 270 269 257 255 263 269
128 126 126 124 121 122 118 92 78 102 123 130 140 158 211 256 292 297 296 296 297 300 303 287 279 276 277 281 285 286 282 281 279 277 276 276 278 274 275 271 260 263 274
132 131 127 126 127 128 127 127 112 64 67 70 67 47 357 329 321 314 310 312 311 312 296 280 276 275 275 277 279 280 281 281 280 281 281 277 275 271 270 272 273 279 281
122 125 126 126 127 127 127 127 130 130 98 9 15 12 358 344 334 328 324 328 318 311 279 274 275 277 277 278 278 279 279 281 279 278 275 272 268 267 265 267 269 271 281
120 121 119 119 117 118 119 119 121 130 148 213 333 342 345 338 331 327 329 311 282 280 277 276 276 277 276 275 276 277 276 276 275 274 272 266 260 255 260 264 268 286 291
116 122 121 119 116 116 119 125 133 146 168 210 263 283 308 326 304 302 295 275 271 272 273 272 273 272 273 271 273 273 273 273 274 271 270 267 261 254 258 260 264 273 276
116 119 118 115 120 127 131 140 152 163 191 236 264 286 304 290 276 279 279 275 271 273 275 275 274 275 272 270 268 267 267 269 269 266 264 260 257 256 255 256 261 267 274
117 117 119 122 123 126 130 140 152 174 213 254 278 296 311 305 283 280 280 280 275 271 270 272 272 269 264 264 266 268 268 266 262 256 256 254 252 252 250 251 259 269 274
116 117 116 117 120 122 112 125 155 193 241 267 282 289 293 285 281 282 282 282 280 277 274 271 273 272 268 267 263 258 261 264 258 252 251 253 251 248 243 246 253 260 265
119 122 125 125 123 126 137 154 182 231 259 271 276 279 279 279 280 283 283 281 280 280 277 274 272 273 273 275 275 270 265 265 261 250 241 243 245 243 240 244 250 250 254
120 122 125 130 134 141 152 183 231 258 274 283 282 282 282 282 281 281 280 279 281 282 281 280 277 276 275 275 276 276 279 281 279 263 232 228 233 232 235 242 244 246 247
119 121 124 130 141 159 186 226 256 270 274 280 281 280 281 282 282 282 282 281 282 283 283 281 276 276 276 279 279 281 284 284 283 279 254 218 220 228 228 235 237 238 242
Height
1438 1442 1446 1451 1456 1461 1465 1469 1474 1478 1482 1485 1489 1492 1495 1497 1500 1502 1503 1504 1505 1506 1507 1507 1507 1506 1506 1505 1503 1502 1501 1498 1494 1492 1491 1490 1488 1486 1483 1480 1477 1474 1471
1434 1438 1442 1447 1452 1456 1460 1465 1469 1473 1477 1481 1484 1488 1490 1493 1495 1497 1499 1500 1501 1502 1502 1502 1502 1502 1501 1500 1498 1497 1495 1493 1490 1485 1484 1483 1481 1479 1476 1473 1470 1467 1464
1431 1435 1439 1443 1447 1452 1456 1461 1465 1469 1473 1477 1480 1483 1486 1489 1491 1493 1495 1496 1497 1498 1498 1498 1497 1497 1496 1494 1493 1491 1489 1487 1484 1481 1477 1476 1474 1472 1469 1466 1463 1460 1458
1428 1431 1435 1439 1443 1448 1453 1457 1461 1465 1469 1472 1476 1479 1482 1484 1487 1488 1490 1491 1492 1493 1493 1493 1492 1491 1490 1489 1487 1485 1483 1481 1478 1475 1471 1469 1467 1465 1462 1459 1455 1453 1450
1424 1428 1431 1436 1441 1445 1449 1453 1457 1461 1465 1469 1472 1475 1477 1480 1482 1484 1485 1487 1487 1488 1488 1488 1487 1486 1485 1483 1481 1479 1477 1474 1472 1469 1465 1462 1460 1458 1456 1452 1448 1444 1442
1421 1425 1429 1433 1437 1441 1445 1450 1454 1457 1461 1464 1467 1470 1473 1475 1477 1479 1481 1482 1482 1483 1483 1483 1482 1481 1479 1477 1476 1473 1472 1469 1465 1462 1459 1456 1453 1452 1449 1446 1442 1437 1433
1418 1422 1426 1430 1433 1438 1442 1446 1450 1453 1457 1460 1463 1466 1469 1471 1473 1475 1476 1477 1477 1478 1477 1477 1476 1475 1473 1471 1469 1467 1465 1463 1460 1457 1453 1450 1448 1445 1442 1438 1435 1432 1428
1415 1419 1423 1426 1430 1435 1439 1442 1446 1450 1453 1456 1459 1462 1465 1467 1469 1470 1471 1472 1472 1472 1472 1471 1469 1468 1466 1464 1461 1459 1457 1455 1453 1450 1447 1444 1441 1439 1436 1433 1429 1425 1421
1412 1415 1419 1423 1427 1431 1435 1439 1442 1446 1449 1452 1455 1458 1461 1463 1465 1466 1466 1466 1466 1466 1465 1464 1463 1461 1460 1457 1454 1451 1448 1447 1445 1443 1440 1437 1435 1432 1430 1427 1422 1419 1414
1409 1413 1417 1421 1425 1428 1432 1436 1439 1443 1446 1449 1452 1454 1457 1458 1460 1461 1461 1460 1460 1459 1459 1458 1456 1454 1452 1450 1448 1444 1441 1439 1437 1434 1432 1429 1427 1425 1423 1420 1417 1413 1409
1407 1411 1415 1418 1422 1426 1430 1433 1436 1439 1442 1445 1448 1450 1452 1454 1455 1455 1455 1455 1454 1453 1452 1450 1449 1448 1445 1443 1441 1438 1435 1432 1429 1426 1423 1421 1419 1417 1415 1413 1410 1407 1404
1405 1409 1412 1416 1420 1423 1427 1430 1433 1436 1439 1441 1443 1446 1447 1448 1449 1449 1449 1449 1448 1446 1445 1443 1442 1440 1438 1436 1434 1431 1429 1426 1422 1419 1416 1413 1411 1409 1407 1405 1403 1401 1398
1403 1407 1411 1414 1418 1421 1425 1427 1430 1433 1435 1437 1439 1441 1442 1443 1444 1444 1444 1443 1442 1440 1438 1437 1435 1433 1430 1428 1426 1424 1421 1418 1415 1412 1409 1407 1405 1402 1400 1398 1396 1394 1392
1402 1406 1409 1413 1416 1419 1423 1425 1428 1430 1432 1433 1435 1436 1437 1438 1438 1438 1437 1436 1435 1433 1432 1430 1428 1425 1423 1421 1419 1416 1414 1411 1408 1405 1402 1400 1398 1396 1394 1392 1390 1388 1385
1401 1404 1408 1411 1415 1418 1421 1423 1425 1427 1429 1430 1431 1432 1432 1432 1433 1432 1431 1430 1428 1427 1424 1422 1420 1418 1416 1414 1411 1409 1407 1404 1402 1399 1397 1394 1392 1390 1388 1387 1385 1383 1381
1400 1403 1407 1410 1413 1416 1419 1421 1423 1425 1426 1427 1427 1428 1427 1428 1427 1426 1425 1423 1422 1420 1418 1415 1413 1411 1409 1407 1404 1402 1400 1398 1396 1393 1391 1389 1387 1385 1384 1382 1380 1378 1376
1399 1402 1406 1409 1412 1414 1416 1418 1420 1422 1422 1423 1423 1423 1423 1422 1421 1420 1418 1417 1415 1413 1411 1408 1407 1405 1402 1400 1398 1396 1394 1392 1390 1388 1386 1384 1382 1380 1379 1377 1376 1374 1372
1399 1402 1405 1408 1410 1412 1414 1416 1417 1418 1418 1418 1419 1418 1417 1416 1415 1414 1412 1410 1408 1407 1404 1402 1400 1398 1396 1394 1392 1390 1388 1386 1384 1382 1381 1379 1378 1376 1375 1373 1372 1370 1369
1398 1401 1404 1406 1408 1410 1412 1413 1413 1414 1414 1414 1413 1413 1412 1410 1409 1408 1406 1404 1402 1400 1398 1396 1394 1392 1390 1388 1386 1384 1382 1380 1379 1377 1375 1374 1373 1372 1370 1369 1368 1367 1366
1398 1400 1403 1404 1406 1408 1409 1409 1410 1410 1409 1409 1408 1407 1406 1405 1403 1402 1400 1398 1396 1394 1392 1390 1388 1386 1384 1382 1380 1378 1376 1375 1373 1372 1370 1369 1368 1367 1366 1365 1364 1363 1362
1396 1399 1401 1402 1403 1404 1405 1405 1405 1405 1405 1404 1403 1402 1401 1399 1397 1396 1394 1392 1390 1388 1386 1384 1382 1380 1378 1376 1374 1372 1371 1369 1368 1366 1365 1365 1364 1363 1362 1361 1361 1360 1359
1395 1397 1398 1400 1400 1401 1401 1401 1401 1401 1400 1399 1398 1397 1396 1394 1392 1390 1388 1387 1384 1382 1380 1378 1376 1374 1372 1370 1368 1366 1365 1363 1362 1361 1360 1360 1359 1358 1358 1357 1357 1356 1356
1393 1395 1396 1397 1397 1397 1397 1397 1397 1396 1395 1394 1393 1392 1390 1389 1387 1385 1383 1380 1378 1376 1374 1372 1370 1368 1366 1364 1362 1360 1359 1357 1357 1356 1355 1355 1354 1354 1354 1353 1353 1353 1353
1391 1392 1393 1393 1393 1393 1393 1393 1392 1391 1390 1389 1388 1386 1385 1383 1381 1379 1377 1375 1373 1370 1368 1366 1364 1361 1360 1358 1356 1354 1353 1352 1351 1350 1350 1350 1350 1350 1350 1349 1349 1349 1349
1388 1389 1389 1390 1390 1389 1389 1389 1388 1387 1386 1384 1383 1381 1380 1378 1376 1374 1371 1369 1367 1364 1362 1360 1358 1356 1354 1352 1350 1348 1347 1346 1346 1345 1345 1345 1345 1345 1345 1345 1345 1346 1346
1385 1386 1386 1386 1386 1385 1385 1384 1383 1382 1381 1379 1378 1376 1374 1372 1370 1368 1366 1363 1361 1359 1356 1354 1352 1350 1348 1346 1344 1343 1342 1341 1341 1341 1341 1340 1340 1341 1341 1341 1342 1342 1343